Location: Hackbridge
(51.3833°N, 0.1500°W)
Time: 20:43:18
(UTC+00:00)

STARLINK-74 - Pass Details

Date: 13 October 2019
Orbit: 548 x 551 km, 53.0° (Epoch: 21 November)

Event Time Altitude Azimuth Distance (km) Brightness Sun altitude
Rises 18:37:11 0° 226° (SW) 2,708 7.8 -14.0°
Reaches altitude 10° 18:39:28 10° 220° (SW) 1,818 6.7 -14.3°
Maximum altitude 18:43:24 43° 148° (SSE) 777 4.1 -15.0°
Enters shadow 18:45:03 28° 97° (E) 1,042 4.4 -15.2°
